Time,TemperatureF,DewpointF,PressureIn,WindDirection,WindDirectionDegrees,WindSpeedMPH,WindSpeedGustMPH,Humidity,HourlyPrecipIn,Conditions,Clouds,dailyrainin,SoftwareType,DateUTC
2013-06-09 00:01:00,74.0,66.0,29.80,South,188,0.0,7.0,77,0.00,,,0.00,weatherlink.com 1.10,2013-06-09 05:01:00,
2013-06-09 00:16:00,73.3,67.0,29.80,SSE,160,4.0,8.0,80,0.00,,,0.00,weatherlink.com 1.10,2013-06-09 05:16:00,
2013-06-09 00:31:00,72.7,67.0,29.80,SSW,201,4.0,6.0,82,0.00,,,0.00,weatherlink.com 1.10,2013-06-09 05:31:00,
2013-06-09 00:46:00,72.1,67.0,29.79,SW,228,3.0,5.0,84,0.00,,,0.00,weatherlink.com 1.10,2013-06-09 05:46:00,
2013-06-09 01:16:00,71.2,68.0,29.79,SSW,204,3.0,3.0,88,0.00,,,0.00,weatherlink.com 1.10,2013-06-09 06:16:00,
2013-06-09 01:31:00,70.7,67.0,29.79,SW,221,1.0,4.0,89,0.00,,,0.00,weatherlink.com 1.10,2013-06-09 06:31:00,
2013-06-09 02:01:00,70.8,68.0,29.79,SSW,210,0.0,5.0,91,0.00,,,0.00,weatherlink.com 1.10,2013-06-09 07:01:00,
2013-06-09 02:31:00,70.9,68.0,29.78,South,169,3.0,4.0,91,0.00,,,0.00,weatherlink.com 1.10,2013-06-09 07:31:00,
2013-06-09 02:46:00,70.5,68.0,29.78,South,174,3.0,5.0,92,0.00,,,0.00,weatherlink.com 1.10,2013-06-09 07:46:00,
2013-06-09 03:16:00,70.9,69.0,29.77,SSW,198,4.0,6.0,92,0.00,,,0.00,weatherlink.com 1.10,2013-06-09 08:16:00,
2013-06-09 03:31:00,70.8,68.0,29.78,SSE,157,3.0,7.0,91,0.00,,,0.00,weatherlink.com 1.10,2013-06-09 08:31:00,
2013-06-09 03:46:00,71.0,68.0,29.78,SSW,200,2.0,8.0,91,0.00,,,0.00,weatherlink.com 1.10,2013-06-09 08:46:00,
2013-06-09 04:01:00,71.1,68.0,29.79,SW,221,3.0,6.0,91,0.00,,,0.00,weatherlink.com 1.10,2013-06-09 09:01:00,
2013-06-09 04:16:00,71.3,69.0,29.78,SSW,207,2.0,7.0,91,0.00,,,0.00,weatherlink.com 1.10,2013-06-09 09:16:00,
2013-06-09 05:01:00,71.9,69.0,29.78,SW,220,5.0,10.0,90,0.00,,,0.00,weatherlink.com 1.10,2013-06-09 10:01:00,
2013-06-09 05:16:00,72.0,69.0,29.79,SW,236,2.0,9.0,89,0.00,,,0.00,weatherlink.com 1.10,2013-06-09 10:16:00,
2013-06-09 05:31:00,72.3,69.0,29.81,SSW,210,3.0,8.0,89,0.00,,,0.00,weatherlink.com 1.10,2013-06-09 10:31:00,
2013-06-09 05:46:00,72.4,69.0,29.80,SSW,203,1.0,8.0,88,0.00,,,0.00,weatherlink.com 1.10,2013-06-09 10:46:00,
2013-06-09 06:01:00,72.1,68.0,29.80,South,191,2.0,6.0,88,0.00,,,0.00,weatherlink.com 1.10,2013-06-09 11:01:00,
2013-06-09 06:16:00,71.9,68.0,29.80,SSW,201,3.0,10.0,87,0.00,,,0.00,weatherlink.com 1.10,2013-06-09 11:16:00,
2013-06-09 06:31:00,71.5,68.0,29.81,SW,219,9.0,10.0,87,0.00,,,0.00,weatherlink.com 1.10,2013-06-09 11:31:00,
2013-06-09 06:46:00,71.0,67.0,29.82,SSE,156,2.0,7.0,88,0.00,,,0.00,weatherlink.com 1.10,2013-06-09 11:46:00,
2013-06-09 07:01:00,70.8,68.0,29.83,SSW,204,0.0,6.0,89,0.00,,,0.00,weatherlink.com 1.10,2013-06-09 12:01:00,
2013-06-09 07:16:00,71.0,68.0,29.85,NW,318,2.0,3.0,89,0.00,,,0.00,weatherlink.com 1.10,2013-06-09 12:16:00,
2013-06-09 07:31:00,71.6,68.0,29.87,NNW,348,3.0,6.0,89,0.00,,,0.00,weatherlink.com 1.10,2013-06-09 12:31:00,
2013-06-09 07:46:00,72.0,68.0,29.88,NNW,333,4.0,7.0,88,0.00,,,0.00,weatherlink.com 1.10,2013-06-09 12:46:00,
2013-06-09 08:01:00,72.2,68.0,29.89,WNW,301,4.0,6.0,87,0.00,,,0.00,weatherlink.com 1.10,2013-06-09 13:01:00,
2013-06-09 08:16:00,72.5,68.0,29.89,NW,320,3.0,7.0,86,0.00,,,0.00,weatherlink.com 1.10,2013-06-09 13:16:00,
2013-06-09 08:31:00,72.7,68.0,29.89,NW,319,2.0,8.0,86,0.00,,,0.00,weatherlink.com 1.10,2013-06-09 13:31:00,
2013-06-09 08:47:00,72.9,69.0,29.89,NW,315,1.0,5.0,86,0.00,,,0.00,weatherlink.com 1.10,2013-06-09 13:47:00,
2013-06-09 09:02:00,73.3,69.0,29.88,NNW,338,2.0,6.0,85,0.00,,,0.00,weatherlink.com 1.10,2013-06-09 14:02:00,
2013-06-09 09:17:00,74.5,69.0,29.88,NNE,25,0.0,6.0,84,0.00,,,0.00,weatherlink.com 1.10,2013-06-09 14:17:00,
2013-06-09 09:32:00,76.7,70.0,29.88,NNW,331,0.0,3.0,79,0.00,,,0.00,weatherlink.com 1.10,2013-06-09 14:32:00,
2013-06-09 09:47:00,80.6,70.0,29.88,SSE,153,2.0,3.0,71,0.00,,,0.00,weatherlink.com 1.10,2013-06-09 14:47:00,
2013-06-09 10:02:00,80.4,69.0,29.87,SSE,147,1.0,4.0,69,0.00,,,0.00,weatherlink.com 1.10,2013-06-09 15:02:00,
2013-06-09 10:17:00,81.6,70.0,29.86,SW,219,0.0,5.0,68,0.00,,,0.00,weatherlink.com 1.10,2013-06-09 15:17:00,
2013-06-09 10:32:00,84.1,70.0,29.84,NW,319,1.0,3.0,63,0.00,,,0.00,weatherlink.com 1.10,2013-06-09 15:32:00,
2013-06-09 10:47:00,83.6,71.0,29.83,SSW,206,0.0,0.0,65,0.00,,,0.00,weatherlink.com 1.10,2013-06-09 15:47:00,
2013-06-09 11:02:00,83.2,68.0,29.83,South,189,0.0,0.0,61,0.00,,,0.00,weatherlink.com 1.10,2013-06-09 16:02:00,
2013-06-09 11:17:00,84.1,69.0,29.82,SW,229,0.0,0.0,61,0.00,,,0.00,weatherlink.com 1.10,2013-06-09 16:17:00,
2013-06-09 11:33:00,85.0,70.0,29.82,SW,224,0.0,0.0,61,0.00,,,0.00,weatherlink.com 1.10,2013-06-09 16:33:00,
2013-06-09 11:47:00,86.5,70.0,29.82,SSW,198,0.0,0.0,59,0.00,,,0.00,weatherlink.com 1.10,2013-06-09 16:47:00,
2013-06-09 12:02:00,87.2,70.0,29.82,South,190,0.0,0.0,56,0.00,,,0.00,weatherlink.com 1.10,2013-06-09 17:02:00,
2013-06-09 12:17:00,85.5,69.0,29.82,SW,217,0.0,0.0,59,0.00,,,0.00,weatherlink.com 1.10,2013-06-09 17:17:00,
2013-06-09 12:32:00,87.9,71.0,29.82,SW,219,0.0,0.0,58,0.00,,,0.00,weatherlink.com 1.10,2013-06-09 17:32:00,
2013-06-09 12:47:00,85.8,70.0,29.82,SSE,153,0.0,0.0,60,0.00,,,0.00,weatherlink.com 1.10,2013-06-09 17:47:00,
2013-06-09 13:02:00,87.4,70.0,29.81,NNW,340,0.0,0.0,57,0.00,,,0.00,weatherlink.com 1.10,2013-06-09 18:02:00,
2013-06-09 13:17:00,87.5,71.0,29.80,SSW,195,0.0,0.0,58,0.00,,,0.00,weatherlink.com 1.10,2013-06-09 18:17:00,
2013-06-09 13:32:00,87.7,71.0,29.79,SSW,210,0.0,0.0,57,0.00,,,0.00,weatherlink.com 1.10,2013-06-09 18:32:00,
2013-06-09 13:47:00,87.7,70.0,29.80,SSE,160,0.0,0.0,55,0.00,,,0.00,weatherlink.com 1.10,2013-06-09 18:47:00,
2013-06-09 14:02:00,88.9,68.0,29.79,SSW,204,0.0,0.0,50,0.00,,,0.00,weatherlink.com 1.10,2013-06-09 19:02:00,
2013-06-09 14:17:00,89.2,69.0,29.79,SE,140,0.0,0.0,51,0.00,,,0.00,weatherlink.com 1.10,2013-06-09 19:17:00,
2013-06-09 14:32:00,90.5,69.0,29.79,SW,226,0.0,0.0,50,0.00,,,0.00,weatherlink.com 1.10,2013-06-09 19:32:00,
2013-06-09 14:47:00,89.0,69.0,29.79,SSW,195,0.0,0.0,51,0.00,,,0.00,weatherlink.com 1.10,2013-06-09 19:47:00,
2013-06-09 15:02:00,89.5,69.0,29.79,NE,39,0.0,0.0,51,0.00,,,0.00,weatherlink.com 1.10,2013-06-09 20:02:00,
2013-06-09 15:17:00,88.6,68.0,29.78,SSW,204,0.0,0.0,51,0.00,,,0.00,weatherlink.com 1.10,2013-06-09 20:17:00,
2013-06-09 15:32:00,90.9,69.0,29.77,WSW,238,0.0,0.0,48,0.00,,,0.00,weatherlink.com 1.10,2013-06-09 20:32:00,
2013-06-09 15:47:00,91.0,69.0,29.77,SW,226,0.0,0.0,48,0.00,,,0.00,weatherlink.com 1.10,2013-06-09 20:47:00,
2013-06-09 16:02:00,92.7,68.0,29.77,WSW,248,0.0,0.0,45,0.00,,,0.00,weatherlink.com 1.10,2013-06-09 21:02:00,
2013-06-09 16:17:00,90.7,68.0,29.77,South,187,0.0,0.0,47,0.00,,,0.00,weatherlink.com 1.10,2013-06-09 21:17:00,
2013-06-09 16:32:00,88.7,68.0,29.77,NNE,20,0.0,0.0,51,0.00,,,0.00,weatherlink.com 1.10,2013-06-09 21:32:00,
2013-06-09 16:47:00,82.5,69.0,29.80,NW,307,0.0,0.0,64,0.00,,,0.00,weatherlink.com 1.10,2013-06-09 21:47:00,
2013-06-09 17:02:00,78.5,68.0,29.80,SSW,195,0.0,0.0,70,0.00,,,0.00,weatherlink.com 1.10,2013-06-09 22:02:00,
2013-06-09 17:17:00,77.9,67.0,29.81,SSW,201,0.0,7.0,68,0.00,,,0.00,weatherlink.com 1.10,2013-06-09 22:17:00,
2013-06-09 17:32:00,77.5,67.0,29.82,WSW,255,3.0,5.0,71,0.00,,,0.00,weatherlink.com 1.10,2013-06-09 22:32:00,
2013-06-09 17:47:00,76.7,65.0,29.82,SSW,198,2.0,7.0,68,0.00,,,0.00,weatherlink.com 1.10,2013-06-09 22:47:00,
2013-06-09 18:02:00,76.8,65.0,29.82,East,79,3.0,9.0,67,0.00,,,0.00,weatherlink.com 1.10,2013-06-09 23:02:00,
2013-06-09 18:17:00,76.1,65.0,29.81,NNE,14,1.0,6.0,68,0.00,,,0.00,weatherlink.com 1.10,2013-06-09 23:17:00,
2013-06-09 18:32:00,75.7,65.0,29.81,SSW,200,0.0,6.0,70,0.00,,,0.00,weatherlink.com 1.10,2013-06-09 23:32:00,
2013-06-09 18:47:00,76.2,65.0,29.82,East,89,0.0,3.0,68,0.00,,,0.00,weatherlink.com 1.10,2013-06-09 23:47:00,
2013-06-09 19:02:00,77.0,65.0,29.81,SE,139,0.0,3.0,67,0.00,,,0.00,weatherlink.com 1.10,2013-06-10 00:02:00,
2013-06-09 19:17:00,78.0,66.0,29.81,NE,45,0.0,3.0,66,0.00,,,0.00,weatherlink.com 1.10,2013-06-10 00:17:00,
2013-06-09 19:32:00,78.7,65.0,29.81,SSW,195,0.0,3.0,64,0.00,,,0.00,weatherlink.com 1.10,2013-06-10 00:32:00,
2013-06-09 19:47:00,79.0,66.0,29.81,East,82,0.0,1.0,64,0.00,,,0.00,weatherlink.com 1.10,2013-06-10 00:47:00,
2013-06-09 20:02:00,78.1,67.0,29.82,SSW,196,1.0,3.0,69,0.00,,,0.00,weatherlink.com 1.10,2013-06-10 01:02:00,
2013-06-09 20:18:00,77.4,66.0,29.82,SSW,203,0.0,1.0,69,0.00,,,0.00,weatherlink.com 1.10,2013-06-10 01:18:00,
2013-06-09 20:32:00,76.5,67.0,29.82,SSW,203,0.0,0.0,72,0.00,,,0.00,weatherlink.com 1.10,2013-06-10 01:32:00,
2013-06-09 20:47:00,75.2,67.0,29.83,SSW,203,0.0,0.0,75,0.00,,,0.00,weatherlink.com 1.10,2013-06-10 01:47:00,
2013-06-09 21:03:00,73.8,67.0,29.84,SSW,204,0.0,0.0,78,0.00,,,0.00,weatherlink.com 1.10,2013-06-10 02:03:00,
2013-06-09 21:19:00,72.3,67.0,29.84,SSW,204,0.0,1.0,83,0.00,,,0.00,weatherlink.com 1.10,2013-06-10 02:19:00,
2013-06-09 21:33:00,71.6,67.0,29.85,SSW,204,0.0,0.0,84,0.00,,,0.00,weatherlink.com 1.10,2013-06-10 02:33:00,
2013-06-09 21:48:00,70.7,66.0,29.85,SSW,204,0.0,0.0,86,0.00,,,0.00,weatherlink.com 1.10,2013-06-10 02:48:00,
2013-06-09 22:03:00,70.1,67.0,29.86,SSW,203,0.0,1.0,88,0.00,,,0.00,weatherlink.com 1.10,2013-06-10 03:03:00,
2013-06-09 22:18:00,69.3,65.0,29.87,SSW,203,0.0,0.0,87,0.00,,,0.00,weatherlink.com 1.10,2013-06-10 03:18:00,
2013-06-09 22:33:00,69.0,65.0,29.88,SSW,204,0.0,0.0,87,0.00,,,0.00,weatherlink.com 1.10,2013-06-10 03:33:00,
2013-06-09 22:48:00,68.3,65.0,29.88,SSW,204,0.0,0.0,88,0.00,,,0.00,weatherlink.com 1.10,2013-06-10 03:48:00,
2013-06-09 23:03:00,68.0,65.0,29.89,SW,228,0.0,39.0,89,0.00,,,0.00,weatherlink.com 1.10,2013-06-10 04:03:00,
2013-06-09 23:18:00,67.5,65.0,29.89,SW,227,0.0,0.0,91,0.00,,,0.00,weatherlink.com 1.10,2013-06-10 04:18:00,
2013-06-09 23:33:00,67.1,65.0,29.90,West,267,0.0,1.0,91,0.00,,,0.00,weatherlink.com 1.10,2013-06-10 04:33:00,
2013-06-09 23:48:00,66.6,64.0,29.90,West,266,0.0,0.0,90,0.00,,,0.00,weatherlink.com 1.10,2013-06-10 04:48:00,